Notices

What's New in latest Release from April 7th, 2021:

- Updated Glossary, including Speed of Maximum Gust, and Total Hourly Precipitation

- Updated national and regional climate services offices contacts and prices information

- Addition of station inventory lists for 1981-2010, 1971-2000, and 1961-1990 Normals.

If you haven't already, please take our survey and provide feedback about our website: https://eccc.sondage-survey.ca/f/LanguageSelection.aspx?s=442ca660-fcf1-47c0-95a9-59707d6fd709

Hourly Data Report for November 25, 2019

QUALICUM BEACH AIRPORT
BRITISH COLUMBIA
Current Station Operator: ECCC - MSC

49°20'14.000" N
124°23'38.000" W
58.20 m
1026562
71766
VOQ

Download Data

Hourly Data (November 2019)
Hourly Data Report for November 25, 2019
TIME
LST
Temp Definition
°C
Dew Point Definition
°C
Rel Hum Definition
%
Precip. Amount Definition
mm

Wind Dir Definition
10's deg

Wind Spd Definition
km/h
Visibility Definition
km
Stn Press Definition
kPa
Hmdx Definition


Wind Chill Definition


Weather Definition


00:00 3.2 2.6 96 LegendMM 26 6   101.41     LegendNANA
01:00 3.0 2.6 97 LegendMM 25 6   101.36     LegendNANA
02:00 1.8 1.5 98 LegendMM 26 7   101.39     LegendNANA
03:00 2.4 1.6 94 LegendMM 29 7   101.37     LegendNANA
04:00 2.5 1.9 96 LegendMM 28 9   101.35     LegendNANA
05:00 2.6 1.5 92 LegendMM 26 6   101.31     LegendNANA
06:00 2.5 1.7 94 LegendMM 28 8   101.33     LegendNANA
07:00 4.0 2.0 87 LegendMM 27 8   101.35     LegendNANA
08:00 3.6 1.6 86 LegendMM 29 11   101.37     LegendNANA
09:00 4.1 1.5 83 LegendMM 27 8   101.40     LegendNANA
10:00 5.8 1.8 76 LegendMM 30 16   101.40     LegendNANA
11:00 6.5 1.8 72 LegendMM 29 13   101.39     LegendNANA
12:00 6.9 2.1 71 LegendMM 29 12   101.34     LegendNANA
13:00 7.3 2.1 69 LegendMM 30 15   101.31     LegendNANA
14:00 7.7 2.0 67 LegendMM 29 15   101.26     LegendNANA
15:00 7.6 2.0 67 LegendMM 30 11   101.26     LegendNANA
16:00 6.6 1.3 69 LegendMM 29 10   101.25     LegendNANA
17:00 6.1 1.3 71 LegendMM 30 13   101.24     LegendNANA
18:00 4.0 1.1 81 LegendMM 27 7   101.22     LegendNANA
19:00 3.3 0.5 82 LegendMM 25 7   101.19     LegendNANA
20:00 3.8 0.0 76 LegendMM 28 8   101.19     LegendNANA
21:00 2.4 -0.4 82 LegendMM 27 8   101.17     LegendNANA
22:00 1.6 -0.3 87 LegendMM 27 4   101.13     LegendNANA
23:00 2.4 -0.1 84 LegendMM 25 7   101.07     LegendNANA

Notes on Data Quality.

Legend

  • E = Estimated
  • M = Missing
  • NA = Not Available*
  • [empty] = Indicates an unobserved value
Date modified: